Flag for Canada Weather past 2 weeks in Welland, Ontario, Canada

Now
51 °F

Cool.


Feels Like: 45 °F
Forecast: 44 / 51 °F
Wind: 18 mph from West

Location: Port Colborne Airport

Current Time: Oct 26, 2014 at 4:01:26 AM

Latest Report: Oct 26, 2014 at 3:00 AM


Visibility: N/A

Pressure: 29.71 "Hg

Humidity: 62%

Dew point: 38 °F

Location of WellandLocation

Historic Weather in Welland — Graph

°F

Welland temperature yesterday

Maximum temperature yesterday: 59 °F (at 9:00 PM)
Minimum temperature yesterday: 54 °F (at 11:00 PM)
Average temperature yesterday: 57 °F

Past Weeks' High & Low Weather Summary

 TemperatureHumidityPressure
High72 °F (Oct 14, 4:00 PM)96% (Oct 16, 7:00 AM)30.29 "Hg (Oct 16, 7:00 AM)
Low39 °F (Oct 19, 10:00 AM)35% (Oct 12, 5:00 PM)29.52 "Hg (Oct 17, 11:00 PM)
Average54 °F74%29.94 "Hg
* Reported Oct 11 2:00 AM — Oct 26 2:00 AM, Welland, Weather by CustomWeather, © 2014

Note: Actual official high and low records may vary slightly from our data, if they occured in-between our weather recording intervals... More about our weather records

Advertising

Welland weather history for previous 24 hours

 ConditionsComfort  
Time TempWeatherWind HumidityBarometerVisibility
2:00 AM
Oct 26
51 °FCool.14 mph68%29.70 "HgN/A
1:00 AM51 °FCool.15 mph64%29.69 "HgN/A
12:00 AM52 °FCool.13 mph61%29.68 "HgN/A
11:00 PM
Oct 25
54 °FCool.13 mph59%29.69 "HgN/A
10:00 PM57 °FCool.28 mph60%29.68 "HgN/A
9:00 PM59 °FCool.24 mph76%29.61 "HgN/A
8:00 PM58 °FCool.21 mph87%29.64 "HgN/A
7:00 PM57 °FCool.23 mph88%29.65 "HgN/A
6:00 PM58 °FCool.28 mph85%29.65 "HgN/A
5:00 PM58 °FCool.26 mph84%29.65 "HgN/A
4:00 PM58 °FCool.30 mph87%29.64 "HgN/A
3:00 PM57 °FCool.32 mph87%29.65 "HgN/A
2:00 PM58 °FCool.35 mph82%29.66 "HgN/A
1:00 PM58 °FCool.30 mph80%29.69 "HgN/A
12:00 PM57 °FCool.31 mph82%29.71 "HgN/A
11:00 AM57 °FCool.29 mph80%29.74 "HgN/A
10:00 AM57 °FCool.24 mph77%29.79 "HgN/A
9:00 AM57 °FCool.23 mph76%29.81 "HgN/A
8:00 AM57 °FCool.20 mph83%29.83 "HgN/A
7:00 AM54 °FCool.22 mph90%29.85 "HgN/A
6:00 AM56 °FCool.21 mph84%29.87 "HgN/A
5:00 AM56 °FCool.20 mph78%29.87 "HgN/A
4:00 AM57 °FCool.21 mph76%29.88 "HgN/A
Weather by CustomWeather, © 2014

See weather overviewHow to use our weather pages